# Mixing ratio of CO2 (xCO2) in dry air measured onboard R/V Kaiyo of the Japan Marine Sciece and Technology Center (JAMSTEC).,,,,,,,,,,,,,,,,,,,,,,
"# Version 2.0; 29 Feb, 2008.",,,,,,,,,,,,,,,,,,,,,,
# Measured by Meteorological Research Institute. ,,,,,,,,,,,,,,,,,,,,,,
# PI : H. Y. Inoue,,,,,,,,,,,,,,,,,,,,,,
# Concetrarion scale = MRI87,,,,,,,,,,,,,,,,,,,,,,
# Date and Time = UTC,,,,,,,,,,,,,,,,,,,,,,
Ship,Cruise,Serial No.,Date,,,Time,,Latitude,Longitude,xCO2_Air,F,xCO2_Sea,F,Wind_Dir,Wind_Spd,Atm_Prs,Atm_Tmp.,SST,F,SSS,F,pH2O
,,,Year,Month,Day,Hour,Min.,Deg.,Deg.,ppm,,ppm,,Deg.,m/s,hPa,deg.C,deg.C,,,,hPa
Kaiyo,9601,1,1996,1,24,9,33,6.5183,169.405,363.02,4,-9.99,9,-99,-9.9,1006.4,-99.9,29.05,2,-9.999,9,39.6
Kaiyo,9601,2,1996,1,24,9,56,6.473,169.344,-9.99,9,382.8,2,-99,-9.9,1006.8,-99.9,29.21,2,34.152,2,40
Kaiyo,9601,3,1996,1,24,10,33,6.3882,169.255,362.68,2,-9.99,9,-99,-9.9,1006.4,-99.9,29.22,2,-9.999,9,40
Kaiyo,9601,4,1996,1,24,10,56,6.3348,169.2,-9.99,9,379.26,2,-99,-9.9,1006.6,-99.9,29.17,2,-9.999,9,39.9
Kaiyo,9601,5,1996,1,24,11,33,6.2442,169.112,365.58,4,-9.99,9,-99,-9.9,1006.6,-99.9,29.03,2,-9.999,9,39.6
Kaiyo,9601,6,1996,1,24,11,56,6.1873,169.056,-9.99,9,374.31,2,-99,-9.9,1006.2,-99.9,29.08,2,-9.999,9,39.6
Kaiyo,9601,7,1996,1,24,12,33,6.0955,168.968,362.725,2,-9.99,9,-99,-9.9,1006,-99.9,29.03,2,-9.999,9,39.6
Kaiyo,9601,8,1996,1,24,12,56,6.0362,168.917,-9.99,9,379.94,2,-99,-9.9,1006,-99.9,29,2,-9.999,9,39.5
Kaiyo,9601,9,1996,1,24,13,33,5.9377,168.829,363.27,4,-9.99,9,-99,-9.9,1005.8,-99.9,29.03,2,-9.999,9,39.6
Kaiyo,9601,10,1996,1,24,13,56,5.8768,168.773,-9.99,9,375.03,2,-99,-9.9,1005.6,-99.9,29.09,2,-9.999,9,39.7
Kaiyo,9601,11,1996,1,24,14,33,5.7832,168.68,364.95,4,-9.99,9,-99,-9.9,1005,-99.9,29.12,2,-9.999,9,39.7
Kaiyo,9601,12,1996,1,24,14,56,5.729,168.624,-9.99,9,371.09,2,-99,-9.9,1004.6,-99.9,29.14,2,-9.999,9,39.8
Kaiyo,9601,13,1996,1,24,15,33,5.643,168.535,362.69,2,-9.99,9,-99,-9.9,1004,-99.9,29.15,2,-9.999,9,39.8
Kaiyo,9601,14,1996,1,24,15,56,5.59,168.482,-9.99,9,368.76,2,-99,-9.9,1004.5,-99.9,29.14,2,-9.999,9,39.8
Kaiyo,9601,15,1996,1,24,16,33,5.4975,168.4,362.67,2,-9.99,9,-99,-9.9,1003.8,-99.9,29.09,2,-9.999,9,39.7
Kaiyo,9601,16,1996,1,24,16,56,5.4413,168.347,-9.99,9,366.86,2,-99,-9.9,1004.5,-99.9,29.09,2,-9.999,9,39.7
Kaiyo,9601,17,1996,1,24,17,33,5.3495,168.258,364.79,4,-9.99,9,-99,-9.9,1004.6,-99.9,29.02,2,-9.999,9,39.5
Kaiyo,9601,18,1996,1,24,17,56,5.2928,168.202,-9.99,9,367.07,2,-99,-9.9,1004.8,-99.9,28.98,2,-9.999,9,39.4
Kaiyo,9601,19,1996,1,24,18,33,5.2017,168.111,362.51,2,-9.99,9,-99,-9.9,1005.6,-99.9,29.04,2,-9.999,9,39.6
Kaiyo,9601,20,1996,1,24,18,56,5.1452,168.054,-9.99,9,369.48,2,-99,-9.9,1005,-99.9,29.04,2,-9.999,9,39.6
Kaiyo,9601,21,1996,1,24,19,33,5.0525,167.961,362.72,2,-9.99,9,-99,-9.9,1005.4,-99.9,29.03,2,-9.999,9,39.6
Kaiyo,9601,22,1996,1,24,19,56,4.9955,167.906,-9.99,9,368.03,2,-99,-9.9,1005.7,-99.9,29,2,-9.999,9,39.5
Kaiyo,9601,23,1996,1,24,20,33,4.9008,167.818,362.6,2,-9.99,9,-99,-9.9,1005.8,-99.9,29.06,2,-9.999,9,39.6
Kaiyo,9601,24,1996,1,24,20,56,4.8435,167.764,-9.99,9,368.75,2,-99,-9.9,1006.1,-99.9,29.04,2,-9.999,9,39.6
Kaiyo,9601,25,1996,1,24,21,33,4.7505,167.677,362.6,2,-9.99,9,-99,-9.9,1006.3,-99.9,29.09,2,-9.999,9,39.7
Kaiyo,9601,26,1996,1,24,21,56,4.6973,167.625,-9.99,9,370.86,2,-99,-9.9,1006.2,-99.9,29.11,2,-9.999,9,39.7
Kaiyo,9601,27,1996,1,24,22,33,4.6982,167.609,362.62,2,-9.99,9,-99,-9.9,1006.7,-99.9,29.18,2,-9.999,9,39.9
Kaiyo,9601,28,1996,1,24,22,56,4.7003,167.599,-9.99,9,373.03,2,-99,-9.9,1006.9,-99.9,29.14,2,34.146,2,39.8
Kaiyo,9601,29,1996,1,24,23,33,4.6915,167.576,362.62,2,-9.99,9,-99,-9.9,1006.1,-99.9,29.15,2,-9.999,9,39.8
Kaiyo,9601,30,1996,1,24,23,56,4.6347,167.524,-9.99,9,373.65,2,-99,-9.9,1006.1,-99.9,29.2,2,-9.999,9,39.9
Kaiyo,9601,31,1996,1,25,0,33,4.5455,167.44,362.62,2,-9.99,9,-99,-9.9,1005.3,-99.9,29.19,2,-9.999,9,39.9
Kaiyo,9601,32,1996,1,25,0,56,4.4882,167.387,-9.99,9,371.55,2,-99,-9.9,1005.2,-99.9,29.17,2,-9.999,9,39.9
Kaiyo,9601,33,1996,1,25,1,33,4.3965,167.304,362.59,2,-9.99,9,-99,-9.9,1004.8,-99.9,29.24,2,-9.999,9,40
Kaiyo,9601,34,1996,1,25,1,56,4.3372,167.255,-9.99,9,374.22,2,-99,-9.9,1004.3,-99.9,29.25,2,-9.999,9,40.1
Kaiyo,9601,35,1996,1,25,2,33,4.2398,167.174,362.52,2,-9.99,9,-99,-9.9,1003.5,-99.9,29.3,2,-9.999,9,40.2
Kaiyo,9601,36,1996,1,25,2,56,4.1808,167.125,-9.99,9,381.69,2,-99,-9.9,1003.4,-99.9,29.35,2,-9.999,9,40.3
Kaiyo,9601,37,1996,1,25,3,33,4.0862,167.043,362.7,2,-9.99,9,-99,-9.9,1003.2,-99.9,29.35,2,-9.999,9,40.3
Kaiyo,9601,38,1996,1,25,3,56,4.041,166.999,-9.99,9,389.08,2,-99,-9.9,1003.4,-99.9,29.39,2,34.482,2,40.4
Kaiyo,9601,39,1996,1,25,4,33,4.0455,166.986,383.14,4,-9.99,9,-99,-9.9,1003.4,-99.9,29.39,2,-9.999,9,40.4
Kaiyo,9601,40,1996,1,25,4,56,4.0487,166.979,-9.99,9,390.58,2,-99,-9.9,1003.2,-99.9,29.37,2,-9.999,9,40.3
Kaiyo,9601,41,1996,1,25,5,33,3.9772,166.908,362.79,2,-9.99,9,-99,-9.9,1003.4,-99.9,29.47,2,-9.999,9,40.6
Kaiyo,9601,42,1996,1,25,5,56,3.919,166.858,-9.99,9,403.03,2,-99,-9.9,1003.4,-99.9,29.54,2,-9.999,9,40.7
Kaiyo,9601,43,1996,1,25,6,33,3.8258,166.776,362.72,2,-9.99,9,-99,-9.9,1003.8,-99.9,29.49,2,-9.999,9,40.6
Kaiyo,9601,44,1996,1,25,6,56,3.769,166.726,-9.99,9,400.75,2,-99,-9.9,1003.8,-99.9,29.44,2,-9.999,9,40.5
Kaiyo,9601,45,1996,1,25,7,33,3.6777,166.642,362.755,2,-9.99,9,-99,-9.9,1004,-99.9,29.42,2,-9.999,9,40.4
Kaiyo,9601,46,1996,1,25,7,56,3.6223,166.589,-9.99,9,399.81,2,-99,-9.9,1004.2,-99.9,29.46,2,-9.999,9,40.5
Kaiyo,9601,47,1996,1,25,8,33,3.5307,166.503,362.74,2,-9.99,9,-99,-9.9,1004.5,-99.9,29.46,2,-9.999,9,40.5
Kaiyo,9601,48,1996,1,25,8,56,3.4738,166.449,-9.99,9,398.85,2,-99,-9.9,1004.9,-99.9,29.48,2,-9.999,9,40.6
Kaiyo,9601,49,1996,1,25,9,33,3.3835,166.359,362.67,2,-9.99,9,-99,-9.9,1005.4,-99.9,29.47,2,-9.999,9,40.6
Kaiyo,9601,50,1996,1,25,9,56,3.4,166.364,-9.99,9,398.12,2,-99,-9.9,1005,-99.9,29.45,2,34.645,2,40.5
Kaiyo,9601,51,1996,1,25,10,33,3.4933,166.45,362.65,2,-9.99,9,-99,-9.9,1005.4,-99.9,29.48,2,-9.999,9,40.6
Kaiyo,9601,52,1996,1,25,10,56,3.5513,166.503,-9.99,9,396.9,2,-99,-9.9,1005.4,-99.9,29.4,2,-9.999,9,40.4
Kaiyo,9601,53,1996,1,25,11,33,3.6437,166.595,362.75,2,-9.99,9,-99,-9.9,1005.3,-99.9,29.41,2,-9.999,9,40.4
Kaiyo,9601,54,1996,1,25,11,56,3.7007,166.653,-9.99,9,397.24,2,-99,-9.9,1005.1,-99.9,29.4,2,-9.999,9,40.4
Kaiyo,9601,55,1996,1,25,12,33,3.7918,166.748,362.53,2,-9.99,9,-99,-9.9,1004.8,-99.9,29.41,2,-9.999,9,40.4
Kaiyo,9601,56,1996,1,25,12,56,3.8477,166.808,-9.99,9,401.09,2,-99,-9.9,1004.5,-99.9,29.44,2,-9.999,9,40.5
Kaiyo,9601,57,1996,1,25,13,33,3.9365,166.903,362.695,2,-9.99,9,-99,-9.9,1004.3,-99.9,29.45,2,-9.999,9,40.5
Kaiyo,9601,58,1996,1,25,13,56,3.9933,166.96,-9.99,9,400.97,2,-99,-9.9,1004.4,-99.9,29.48,2,-9.999,9,40.6
Kaiyo,9601,59,1996,1,25,14,33,4.0888,167.051,362.625,2,-9.99,9,-99,-9.9,1004,-99.9,29.4,2,-9.999,9,40.4
Kaiyo,9601,60,1996,1,25,14,56,4.1503,167.104,-9.99,9,390.07,2,-99,-9.9,1003.8,-99.9,29.35,2,-9.999,9,40.3
Kaiyo,9601,61,1996,1,25,15,33,4.2495,167.19,362.74,2,-9.99,9,-99,-9.9,1003.4,-99.9,29.26,2,-9.999,9,40.1
Kaiyo,9601,62,1996,1,25,15,56,4.3082,167.246,-9.99,9,380.65,2,-99,-9.9,1003.7,-99.9,29.26,2,-9.999,9,40.1
Kaiyo,9601,63,1996,1,25,16,33,4.4003,167.339,362.79,2,-9.99,9,-99,-9.9,1003.2,-99.9,29.23,2,-9.999,9,40
Kaiyo,9601,64,1996,1,25,16,56,4.4552,167.399,-9.99,9,376.97,2,-99,-9.9,1003.3,-99.9,29.21,2,-9.999,9,40
Kaiyo,9601,65,1996,1,25,17,33,4.546,167.497,362.76,2,-9.99,9,-99,-9.9,1003.8,-99.9,29.2,2,-9.999,9,39.9
Kaiyo,9601,66,1996,1,25,17,56,4.6058,167.553,-9.99,9,373.73,2,-99,-9.9,1003.6,-99.9,29.21,2,-9.999,9,40
Kaiyo,9601,67,1996,1,25,18,33,4.703,167.64,362.855,2,-9.99,9,-99,-9.9,1003.5,-99.9,29.16,2,-9.999,9,39.8
Kaiyo,9601,68,1996,1,25,18,56,4.7645,167.694,-9.99,9,373.05,2,-99,-9.9,1004,-99.9,29.17,2,-9.999,9,39.9
Kaiyo,9601,69,1996,1,25,19,33,4.8602,167.782,362.65,2,-9.99,9,-99,-9.9,1004.2,-99.9,29.14,2,-9.999,9,39.8
Kaiyo,9601,70,1996,1,25,19,56,4.9172,167.84,-9.99,9,371.99,2,-99,-9.9,1004.8,-99.9,29.14,2,-9.999,9,39.8
Kaiyo,9601,71,1996,1,25,20,33,5.0017,167.923,362.75,2,-9.99,9,-99,-9.9,1005.6,-99.9,29.19,2,-9.999,9,39.9
Kaiyo,9601,72,1996,1,25,20,56,5.0543,167.973,-9.99,9,370.35,2,-99,-9.9,1005.9,-99.9,29.15,2,-9.999,9,39.8
Kaiyo,9601,73,1996,1,25,21,33,5.1403,168.052,362.72,2,-9.99,9,-99,-9.9,1006.2,-99.9,29.11,2,-9.999,9,39.7
Kaiyo,9601,74,1996,1,25,21,56,5.1942,168.099,-9.99,9,369.48,2,-99,-9.9,1006.2,-99.9,29.05,2,34.061,2,39.6
Kaiyo,9601,75,1996,1,25,22,33,5.2782,168.182,362.71,2,-9.99,9,-99,-9.9,1006.2,-99.9,29.11,2,-9.999,9,39.7
Kaiyo,9601,76,1996,1,25,22,56,5.331,168.235,-9.99,9,373.28,2,-99,-9.9,1006.7,-99.9,29.11,2,-9.999,9,39.7
Kaiyo,9601,77,1996,1,25,23,33,5.4172,168.32,362.58,2,-9.99,9,-99,-9.9,1006.6,-99.9,29.03,2,-9.999,9,39.6
Kaiyo,9601,78,1996,1,25,23,56,5.4702,168.372,-9.99,9,370.94,2,-99,-9.9,1006.6,-99.9,29.04,2,-9.999,9,39.6
Kaiyo,9601,79,1996,1,26,0,33,5.5537,168.453,362.3,2,-9.99,9,-99,-9.9,1005.4,-99.9,28.99,2,-9.999,9,39.5
Kaiyo,9601,80,1996,1,26,0,56,5.6053,168.504,-9.99,9,368.9,2,-99,-9.9,1005.1,-99.9,29,2,-9.999,9,39.5
Kaiyo,9601,81,1996,1,26,1,33,5.516,168.427,362.455,2,-9.99,9,-99,-9.9,1004.8,-99.9,29.04,2,-9.999,9,39.6
Kaiyo,9601,82,1996,1,26,1,56,5.4595,168.372,-9.99,9,371.3,2,-99,-9.9,1004.5,-99.9,29.06,2,-9.999,9,39.6
Kaiyo,9601,83,1996,1,26,2,33,5.3657,168.285,362.49,2,-9.99,9,-99,-9.9,1004.6,-99.9,29.04,2,-9.999,9,39.6
Kaiyo,9601,84,1996,1,26,2,56,5.3085,168.227,-9.99,9,373.09,2,-99,-9.9,1004.3,-99.9,29.12,2,-9.999,9,39.7
Kaiyo,9601,85,1996,1,26,3,33,5.2195,168.138,362.73,2,-9.99,9,-99,-9.9,1004.2,-99.9,29.08,2,-9.999,9,39.6
Kaiyo,9601,86,1996,1,26,3,56,5.1643,168.082,-9.99,9,368.61,2,-99,-9.9,1003.8,-99.9,29.11,2,-9.999,9,39.7
Kaiyo,9601,87,1996,1,26,4,33,5.0767,167.995,362.44,2,-9.99,9,-99,-9.9,1004,-99.9,29.14,2,-9.999,9,39.8
Kaiyo,9601,88,1996,1,26,4,56,5.0225,167.943,-9.99,9,371.11,2,-99,-9.9,1004.2,-99.9,29.15,2,-9.999,9,39.8
Kaiyo,9601,89,1996,1,26,5,33,4.9338,167.859,362.54,2,-9.99,9,-99,-9.9,1004.4,-99.9,29.13,2,-9.999,9,39.8
Kaiyo,9601,90,1996,1,26,5,56,4.8795,167.807,-9.99,9,371.49,2,-99,-9.9,1004.2,-99.9,29.13,2,-9.999,9,39.8
Kaiyo,9601,91,1996,1,26,6,33,4.7908,167.722,362.63,2,-9.99,9,-99,-9.9,1004.6,-99.9,29.15,2,-9.999,9,39.8
Kaiyo,9601,92,1996,1,26,6,56,4.735,167.67,-9.99,9,372.62,2,-99,-9.9,1004.8,-99.9,29.17,2,-9.999,9,39.9
Kaiyo,9601,93,1996,1,26,7,33,4.6482,167.582,362.62,2,-9.99,9,-99,-9.9,1005.6,-99.9,29.21,2,-9.999,9,40
Kaiyo,9601,94,1996,1,26,7,56,4.5917,167.528,-9.99,9,371.4,2,-99,-9.9,1005.8,-99.9,29.15,2,-9.999,9,39.8
Kaiyo,9601,95,1996,1,26,8,33,4.502,167.44,362.645,2,-9.99,9,-99,-9.9,1006.2,-99.9,29.23,2,-9.999,9,40
Kaiyo,9601,96,1996,1,26,8,56,4.4482,167.384,-9.99,9,374.41,2,-99,-9.9,1006.6,-99.9,29.19,2,-9.999,9,39.9
Kaiyo,9601,97,1996,1,26,9,33,4.365,167.294,362.49,2,-9.99,9,-99,-9.9,1006.8,-99.9,29.27,2,-9.999,9,40.1
Kaiyo,9601,98,1996,1,26,9,56,4.3123,167.241,-9.99,9,380.79,2,-99,-9.9,1006.5,-99.9,29.22,2,34.293,2,40
Kaiyo,9601,99,1996,1,26,10,33,4.2235,167.156,362.685,2,-9.99,9,-99,-9.9,1006.7,-99.9,29.35,2,-9.999,9,40.3
Kaiyo,9601,100,1996,1,26,10,56,4.166,167.107,-9.99,9,394.51,2,-99,-9.9,1006.9,-99.9,29.34,2,-9.999,9,40.3
Kaiyo,9601,101,1996,1,26,11,33,4.0755,167.028,362.77,2,-9.99,9,-99,-9.9,1006.7,-99.9,29.39,2,-9.999,9,40.4
Kaiyo,9601,102,1996,1,26,11,56,4.021,166.976,-9.99,9,393.7,2,-99,-9.9,1006.8,-99.9,29.37,2,-9.999,9,40.3
Kaiyo,9601,103,1996,1,26,12,33,3.9333,166.896,362.58,2,-9.99,9,-99,-9.9,1006.6,-99.9,29.39,2,-9.999,9,40.4
Kaiyo,9601,104,1996,1,26,12,56,3.8808,166.843,-9.99,9,393.88,2,-99,-9.9,1006.4,-99.9,29.37,2,-9.999,9,40.3
Kaiyo,9601,105,1996,1,26,13,33,3.7938,166.76,362.55,2,-9.99,9,-99,-9.9,1006.4,-99.9,29.41,2,-9.999,9,40.4
Kaiyo,9601,106,1996,1,26,13,56,3.7398,166.707,-9.99,9,395.34,2,-99,-9.9,1006.3,-99.9,29.35,2,-9.999,9,40.3
Kaiyo,9601,107,1996,1,26,14,33,3.6522,166.624,362.825,2,-9.99,9,-99,-9.9,1006,-99.9,29.41,2,-9.999,9,40.4
Kaiyo,9601,108,1996,1,26,14,56,3.5978,166.571,-9.99,9,395.17,2,-99,-9.9,1005.5,-99.9,29.36,2,-9.999,9,40.3
Kaiyo,9601,109,1996,1,26,15,33,3.5122,166.485,362.71,2,-9.99,9,-99,-9.9,1005.1,-99.9,29.31,2,-9.999,9,40.2
Kaiyo,9601,110,1996,1,26,15,56,3.4583,166.431,-9.99,9,393.57,2,-99,-9.9,1005.3,-99.9,29.3,2,-9.999,9,40.2
Kaiyo,9601,111,1996,1,26,16,33,3.3687,166.346,362.56,2,-9.99,9,-99,-9.9,1005.4,-99.9,29.22,2,-9.999,9,40
Kaiyo,9601,112,1996,1,26,16,56,3.313,166.293,-9.99,9,391.42,2,-99,-9.9,1005.2,-99.9,29.21,2,-9.999,9,40
Kaiyo,9601,113,1996,1,26,17,33,3.2197,166.209,362.63,2,-9.99,9,-99,-9.9,1005.6,-99.9,29.2,2,-9.999,9,39.9
Kaiyo,9601,114,1996,1,26,17,56,3.1645,166.153,-9.99,9,389.96,2,-99,-9.9,1005.9,-99.9,29.12,2,-9.999,9,39.7
Kaiyo,9601,115,1996,1,26,18,33,3.0755,166.062,362.49,2,-9.99,9,-99,-9.9,1006.1,-99.9,29.21,2,-9.999,9,40
Kaiyo,9601,116,1996,1,26,18,56,3.02,166.007,-9.99,9,396.57,2,-99,-9.9,1006,-99.9,29.32,2,-9.999,9,40.2
Kaiyo,9601,117,1996,1,26,19,33,2.9273,165.918,362.6,2,-9.99,9,-99,-9.9,1006.4,-99.9,29.37,2,-9.999,9,40.3
Kaiyo,9601,118,1996,1,26,19,56,2.8688,165.863,-9.99,9,401.39,2,-99,-9.9,1006.4,-99.9,29.39,2,-9.999,9,40.4
Kaiyo,9601,119,1996,1,26,20,33,2.7753,165.774,362.55,2,-9.99,9,-99,-9.9,1006.7,-99.9,29.48,2,-9.999,9,40.6
Kaiyo,9601,120,1996,1,26,20,56,2.717,165.718,-9.99,9,405.09,2,-99,-9.9,1007,-99.9,29.52,2,-9.999,9,40.7
Kaiyo,9601,121,1996,1,26,21,33,2.623,165.627,362.42,2,-9.99,9,-99,-9.9,1007.8,-99.9,29.66,2,-9.999,9,41
Kaiyo,9601,122,1996,1,26,21,56,2.5657,165.571,-9.99,9,408.68,2,-99,-9.9,1007.7,-99.9,29.7,2,35.025,2,41.1
Kaiyo,9601,123,1996,1,26,22,33,2.4733,165.48,362.47,2,-9.99,9,-99,-9.9,1007.4,-99.9,29.77,2,-9.999,9,41.3
Kaiyo,9601,124,1996,1,26,22,56,2.416,165.424,-9.99,9,410.09,2,-99,-9.9,1007.2,-99.9,29.79,2,-9.999,9,41.3
Kaiyo,9601,125,1996,1,26,23,33,2.3232,165.336,362.53,2,-9.99,9,-99,-9.9,1007,-99.9,29.8,2,-9.999,9,41.3
Kaiyo,9601,126,1996,1,26,23,56,2.2648,165.281,-9.99,9,411.89,2,-99,-9.9,1006.9,-99.9,29.86,2,-9.999,9,41.5
Kaiyo,9601,127,1996,1,27,0,33,2.1718,165.193,362.63,2,-9.99,9,-99,-9.9,1006.7,-99.9,29.87,2,-9.999,9,41.5
Kaiyo,9601,128,1996,1,27,0,56,2.1142,165.138,-9.99,9,413.4,2,-99,-9.9,1006.5,-99.9,29.9,2,-9.999,9,41.6
Kaiyo,9601,129,1996,1,27,1,33,2.0252,165.042,362.55,2,-9.99,9,-99,-9.9,1006,-99.9,29.95,2,-9.999,9,41.7
Kaiyo,9601,130,1996,1,27,1,56,2.0072,165.024,-9.99,9,416.02,2,-99,-9.9,1005.8,-99.9,30,2,35.243,2,41.8
Kaiyo,9601,131,1996,1,27,2,33,2.0067,165.011,362.55,2,-9.99,9,-99,-9.9,1005.3,-99.9,30.06,2,-9.999,9,42
Kaiyo,9601,132,1996,1,27,2,56,2.0067,165.006,-9.99,9,421.76,4,-99,-9.9,1005.4,-99.9,30.04,2,-9.999,9,41.9
Kaiyo,9601,133,1996,1,27,3,33,2.0017,165.02,362.6,2,-9.99,9,-99,-9.9,1005,-99.9,30.23,2,-9.999,9,42.4
Kaiyo,9601,134,1996,1,27,3,56,2.0013,165.011,-9.99,9,420.09,4,-99,-9.9,1005,-99.9,30.11,2,-9.999,9,42.1
Kaiyo,9601,135,1996,1,27,4,33,2.0018,165,362.72,2,-9.99,9,-99,-9.9,1005.2,-99.9,30.26,2,-9.999,9,42.4
Kaiyo,9601,136,1996,1,27,4,56,2.0015,164.999,-9.99,9,428.38,4,-99,-9.9,1005,-99.9,30.47,2,-9.999,9,43
Kaiyo,9601,137,1996,1,27,5,33,2.0015,164.997,362.72,2,-9.99,9,-99,-9.9,1005,-99.9,30.42,2,-9.999,9,42.8
Kaiyo,9601,138,1996,1,27,5,56,2.0025,164.99,-9.99,9,427.08,4,-99,-9.9,1005.3,-99.9,30.51,2,-9.999,9,43.1
Kaiyo,9601,139,1996,1,27,6,33,2.0068,164.978,362.55,2,-9.99,9,-99,-9.9,1005.8,-99.9,30.52,2,-9.999,9,43.1
Kaiyo,9601,140,1996,1,27,6,56,2.0092,164.975,-9.99,9,429.76,4,-99,-9.9,1006,-99.9,30.42,2,-9.999,9,42.8
Kaiyo,9601,141,1996,1,27,7,33,2.0137,164.968,362.35,2,-9.99,9,-99,-9.9,1006.4,-99.9,30.32,2,-9.999,9,42.6
Kaiyo,9601,142,1996,1,27,7,56,2.0148,164.963,-9.99,9,425.87,4,-99,-9.9,1006.9,-99.9,30.28,2,-9.999,9,42.5
Kaiyo,9601,143,1996,1,27,8,33,2.0182,164.955,362.59,2,-9.99,9,-99,-9.9,1007.2,-99.9,30.21,2,-9.999,9,42.3
Kaiyo,9601,144,1996,1,27,8,56,2.0208,164.95,-9.99,9,423.75,4,-99,-9.9,1007.4,-99.9,30.17,2,-9.999,9,42.2
Kaiyo,9601,145,1996,1,27,9,33,2.0238,164.943,362.49,2,-9.99,9,-99,-9.9,1007.8,-99.9,30.12,2,-9.999,9,42.1
Kaiyo,9601,146,1996,1,27,9,56,2.0272,164.938,-9.99,9,422.3,2,-99,-9.9,1007.9,-99.9,30.11,2,35.233,2,42.1
Kaiyo,9601,147,1996,1,27,10,33,2.0325,164.93,363.24,4,-9.99,9,-99,-9.9,1008.2,-99.9,30.07,2,-9.999,9,42
Kaiyo,9601,148,1996,1,27,10,56,2.0353,164.924,-9.99,9,420.39,4,-99,-9.9,1008,-99.9,30.03,2,-9.999,9,41.9
Kaiyo,9601,149,1996,1,27,11,33,2.0387,164.915,362.685,2,-9.99,9,-99,-9.9,1008,-99.9,29.98,2,-9.999,9,41.8
Kaiyo,9601,150,1996,1,27,11,56,2.0387,164.91,-9.99,9,419.91,4,-99,-9.9,1008,-99.9,29.96,2,-9.999,9,41.7
Kaiyo,9601,151,1996,1,27,12,33,2.039,164.902,362.33,2,-9.99,9,-99,-9.9,1007.9,-99.9,29.95,2,-9.999,9,41.7
Kaiyo,9601,152,1996,1,27,12,56,2.0402,164.898,-9.99,9,419.14,4,-99,-9.9,1007.7,-99.9,29.92,2,-9.999,9,41.6
Kaiyo,9601,153,1996,1,27,13,33,2.0413,164.889,362.61,2,-9.99,9,-99,-9.9,1007.4,-99.9,29.9,2,-9.999,9,41.6
Kaiyo,9601,154,1996,1,27,13,56,2.042,164.884,-9.99,9,417.86,4,-99,-9.9,1007.4,-99.9,29.89,2,-9.999,9,41.6
Kaiyo,9601,155,1996,1,27,14,33,2.0432,164.876,362.9,2,-9.99,9,-99,-9.9,1007,-99.9,29.89,2,-9.999,9,41.6
Kaiyo,9601,156,1996,1,27,14,56,2.0438,164.87,-9.99,9,418.23,4,-99,-9.9,1007.1,-99.9,29.88,2,-9.999,9,41.5
Kaiyo,9601,157,1996,1,27,15,33,2.046,164.861,362.685,2,-9.99,9,-99,-9.9,1007,-99.9,29.86,2,-9.999,9,41.5
Kaiyo,9601,158,1996,1,27,15,56,2.0473,164.856,-9.99,9,418.23,4,-99,-9.9,1006.7,-99.9,29.86,2,-9.999,9,41.5
Kaiyo,9601,159,1996,1,27,16,33,2.0483,164.848,362.56,2,-9.99,9,-99,-9.9,1006.7,-99.9,29.82,2,-9.999,9,41.4
Kaiyo,9601,160,1996,1,27,16,56,2.0502,164.845,-9.99,9,419.33,4,-99,-9.9,1006.6,-99.9,29.81,2,-9.999,9,41.4
Kaiyo,9601,161,1996,1,27,17,33,2.0272,164.897,362.55,2,-9.99,9,-99,-9.9,1006.6,-99.9,29.82,2,-9.999,9,41.4
Kaiyo,9601,162,1996,1,27,17,56,2.0125,164.928,-9.99,9,412.54,2,-99,-9.9,1007.1,-99.9,29.82,2,-9.999,9,41.4
Kaiyo,9601,163,1996,1,27,18,33,2.0055,164.95,362.44,2,-9.99,9,-99,-9.9,1007.4,-99.9,29.81,2,-9.999,9,41.4
Kaiyo,9601,164,1996,1,27,18,56,2.0092,164.946,-9.99,9,417.95,4,-99,-9.9,1007.5,-99.9,29.8,2,-9.999,9,41.3
Kaiyo,9601,165,1996,1,27,19,33,2.0008,164.94,362.55,2,-9.99,9,-99,-9.9,1007.9,-99.9,29.8,2,-9.999,9,41.3
Kaiyo,9601,166,1996,1,27,19,56,1.999,164.938,-9.99,9,415.88,2,-99,-9.9,1008.2,-99.9,29.8,2,-9.999,9,41.3
Kaiyo,9601,167,1996,1,27,20,33,1.99,164.936,362.45,2,-9.99,9,-99,-9.9,1008.8,-99.9,29.8,2,-9.999,9,41.3
Kaiyo,9601,168,1996,1,27,20,56,1.9925,164.942,-9.99,9,412.9,2,-99,-9.9,1008.9,-99.9,29.8,2,-9.999,9,41.3
Kaiyo,9601,169,1996,1,27,21,33,1.9933,164.952,362.61,2,-9.99,9,-99,-9.9,1009,-99.9,29.81,2,-9.999,9,41.4
Kaiyo,9601,170,1996,1,27,21,56,1.9943,164.962,-9.99,9,412.54,2,-99,-9.9,1009,-99.9,29.82,2,35.23,2,41.4
Kaiyo,9601,171,1996,1,27,22,33,1.997,164.98,362.63,2,-9.99,9,-99,-9.9,1009.3,-99.9,29.82,2,-9.999,9,41.4
Kaiyo,9601,172,1996,1,27,22,56,1.9945,164.989,-9.99,9,413.46,2,-99,-9.9,1009.1,-99.9,29.82,2,-9.999,9,41.4
Kaiyo,9601,173,1996,1,27,23,33,1.9763,164.978,363.2,4,-9.99,9,-99,-9.9,1008.8,-99.9,29.83,2,-9.999,9,41.4
Kaiyo,9601,174,1996,1,27,23,56,1.9747,164.97,-9.99,9,414.7,2,-99,-9.9,1008.9,-99.9,29.86,2,35.238,2,41.5
Kaiyo,9601,175,1996,1,28,0,33,1.9702,164.961,362.32,2,-9.99,9,-99,-9.9,1008.3,-99.9,29.91,2,-9.999,9,41.6
Kaiyo,9601,176,1996,1,28,0,56,1.9838,164.981,-9.99,9,414.66,2,-99,-9.9,1008,-99.9,29.94,2,-9.999,9,41.7
Kaiyo,9601,177,1996,1,28,1,33,1.9102,164.982,362.525,2,-9.99,9,-99,-9.9,1007.4,-99.9,29.98,2,-9.999,9,41.8
Kaiyo,9601,178,1996,1,28,1,56,1.8418,164.985,-9.99,9,416.71,2,-99,-9.9,1006.9,-99.9,29.97,2,-9.999,9,41.7
Kaiyo,9601,179,1996,1,28,2,33,1.7315,164.991,362.65,2,-9.99,9,-99,-9.9,1006.6,-99.9,29.94,2,-9.999,9,41.7
Kaiyo,9601,180,1996,1,28,2,56,1.6633,164.994,-9.99,9,420.23,4,-99,-9.9,1006.1,-99.9,29.99,2,-9.999,9,41.8
Kaiyo,9601,181,1996,1,28,3,33,1.555,165.001,362.7,2,-9.99,9,-99,-9.9,1005.9,-99.9,29.92,2,-9.999,9,41.6
Kaiyo,9601,182,1996,1,28,3,56,1.4865,164.997,-9.99,9,422.46,4,-99,-9.9,1005.8,-99.9,29.96,2,-9.999,9,41.7
Kaiyo,9601,183,1996,1,28,4,33,1.3757,164.996,362.52,2,-9.99,9,-99,-9.9,1005.6,-99.9,29.96,2,-9.999,9,41.7
Kaiyo,9601,184,1996,1,28,4,56,1.3073,164.996,-9.99,9,420.89,4,-99,-9.9,1005.8,-99.9,29.99,2,-9.999,9,41.8
Kaiyo,9601,185,1996,1,28,5,33,1.1957,164.996,362.52,2,-9.99,9,-99,-9.9,1005.8,-99.9,29.98,2,-9.999,9,41.8
Kaiyo,9601,186,1996,1,28,5,56,1.126,164.998,-9.99,9,418.99,4,-99,-9.9,1006.3,-99.9,30.02,2,-9.999,9,41.9
Kaiyo,9601,187,1996,1,28,6,33,1.0132,165.001,362.64,2,-9.99,9,-99,-9.9,1006.6,-99.9,29.99,2,-9.999,9,41.8
Kaiyo,9601,188,1996,1,28,6,56,1.0005,164.994,-9.99,9,417.48,4,-99,-9.9,1007,-99.9,29.96,2,-35.054,2,41.7
Kaiyo,9601,189,1996,1,28,7,33,0.996,164.984,363.1,4,-9.99,9,-99,-9.9,1007.5,-99.9,29.9,2,-9.999,9,41.6
Kaiyo,9601,190,1996,1,28,7,56,0.9445,164.984,-9.99,9,415.64,2,-99,-9.9,1007.6,-99.9,29.97,2,-9.999,9,41.7
Kaiyo,9601,191,1996,1,28,8,33,0.83417,164.988,362.59,2,-9.99,9,-99,-9.9,1008,-99.9,30.02,2,-9.999,9,41.9
Kaiyo,9601,192,1996,1,28,8,56,0.76583,164.992,-9.99,9,414.66,2,-99,-9.9,1008.2,-99.9,30.04,2,-9.999,9,41.9
Kaiyo,9601,193,1996,1,28,9,33,0.65817,164.999,362.61,2,-9.99,9,-99,-9.9,1008.5,-99.9,30.03,2,-9.999,9,41.9
Kaiyo,9601,194,1996,1,28,9,56,0.59033,165.001,-9.99,9,405.31,2,-99,-9.9,1008.5,-99.9,30.03,2,35.193,2,41.9
Kaiyo,9601,195,1996,1,28,10,33,0.47983,165.005,362.59,2,-9.99,9,-99,-9.9,1008.6,-99.9,30.01,2,-9.999,9,41.8
Kaiyo,9601,196,1996,1,28,10,56,0.4105,165.006,-9.99,9,402.87,2,-99,-9.9,1008.6,-99.9,30.02,2,-9.999,9,41.9
Kaiyo,9601,197,1996,1,28,11,33,0.299,165.004,362.4,2,-9.99,9,-99,-9.9,1008.2,-99.9,30.06,2,-9.999,9,42
Kaiyo,9601,198,1996,1,28,11,56,0.2295,165.004,-9.99,9,402.62,2,-99,-9.9,1008.2,-99.9,30.04,2,-9.999,9,41.9
Kaiyo,9601,199,1996,1,28,12,33,0.12067,165.003,362.44,2,-9.99,9,-99,-9.9,1008.2,-99.9,30.03,2,-9.999,9,41.9
Kaiyo,9601,200,1996,1,28,12,56,0.060667,164.996,-9.99,9,401.75,2,-99,-9.9,1008.3,-99.9,30.03,2,-9.999,9,41.9
Kaiyo,9601,201,1996,1,28,13,33,0.050667,164.983,362.6,2,-9.99,9,-99,-9.9,1007.8,-99.9,30.05,2,-9.999,9,41.9
Kaiyo,9601,202,1996,1,28,13,56,0.048667,164.977,-9.99,9,408.28,2,-99,-9.9,1007.4,-99.9,30.06,2,-9.999,9,42
Kaiyo,9601,203,1996,1,28,14,33,0.046167,164.971,362.675,2,-9.99,9,-99,-9.9,1006.7,-99.9,30.03,2,-9.999,9,41.9
Kaiyo,9601,204,1996,1,28,14,56,0.044167,164.968,-9.99,9,408.85,2,-99,-9.9,1006.4,-99.9,30.03,2,-9.999,9,41.9
Kaiyo,9601,205,1996,1,28,15,33,0.0073333,164.965,362.52,2,-9.99,9,-99,-9.9,1006.2,-99.9,30.01,2,-9.999,9,41.8
Kaiyo,9601,206,1996,1,28,15,56,-0.026,164.965,-9.99,9,401.47,2,-99,-9.9,1006.1,-99.9,30,2,-9.999,9,41.8
Kaiyo,9601,207,1996,1,28,16,33,-0.031,164.959,362.48,2,-9.99,9,-99,-9.9,1006.3,-99.9,29.98,2,-9.999,9,41.8
Kaiyo,9601,208,1996,1,28,16,56,-0.034333,164.955,-9.99,9,406.82,2,-99,-9.9,1006.1,-99.9,29.99,2,-9.999,9,41.8
Kaiyo,9601,209,1996,1,28,17,33,-0.040333,164.949,362.39,2,-9.99,9,-99,-9.9,1006.2,-99.9,30,2,-9.999,9,41.8
Kaiyo,9601,210,1996,1,28,17,56,-0.040833,164.95,-9.99,9,406.27,2,-99,-9.9,1006.1,-99.9,29.98,2,-9.999,9,41.8
Kaiyo,9601,211,1996,1,28,18,33,0,164.995,362.47,2,-9.99,9,-99,-9.9,1006.4,-99.9,29.98,2,-9.999,9,41.8
Kaiyo,9601,212,1996,1,28,18,56,-0.0045,164.994,-9.99,9,402.94,2,-99,-9.9,1006.7,-99.9,29.98,2,-9.999,9,41.8
Kaiyo,9601,213,1996,1,28,19,33,-0.0023333,164.992,362.69,2,-9.99,9,-99,-9.9,1006.7,-99.9,30,2,-9.999,9,41.8
Kaiyo,9601,214,1996,1,28,19,56,-0.0035,164.99,-9.99,9,404.15,2,-99,-9.9,1007.3,-99.9,29.99,2,-9.999,9,41.8
Kaiyo,9601,215,1996,1,28,20,33,-0.002,164.996,362.48,2,-9.99,9,-99,-9.9,1007.7,-99.9,30.01,2,-9.999,9,41.8
Kaiyo,9601,216,1996,1,28,20,56,-0.0015,164.994,-9.99,9,405.23,2,-99,-9.9,1007.9,-99.9,30.02,2,-9.999,9,41.9
Kaiyo,9601,217,1996,1,28,21,33,-0.004,164.98,363.54,4,-9.99,9,-99,-9.9,1007.7,-99.9,30.03,2,-9.999,9,41.9
Kaiyo,9601,218,1996,1,28,21,56,-0.0048333,164.974,-9.99,9,403.48,2,-99,-9.9,1007.8,-99.9,30.03,2,35.15,2,41.9
Kaiyo,9601,219,1996,1,28,22,33,-0.0035,164.976,368.95,4,-9.99,9,-99,-9.9,1007.7,-99.9,30.06,2,-9.999,9,42